When you browse on this site, cookies collect data to enhance your experience and personalize the content and advertising you see.
Visit our Privacy Policy to learn more. By continuing to use the site, you agree to this use of cookies and data.
EN

Hourly Weather Bukavu

Today, 13 August, Thursday

Time Temperature Precipitation Wind Pressure Humidity
00:00 +20°C° 0.1 mm 0 mps 688 mmHg 97%
01:00 +20°C° 0.1 mm 0 mps 688 mmHg 97%
02:00 +19°C° 0 mm 0 mps 688 mmHg 98%
03:00 +19°C° 0.2 mm 0 mps 688 mmHg 98%
04:00 +19°C° 0.2 mm 0 mps 688 mmHg 98%
05:00 +19°C° 0.2 mm 0 mps 688 mmHg 98%
06:00 +20°C° 0.2 mm 0 mps 689 mmHg 97%
07:00 +20°C° 0.2 mm 0 mps 689 mmHg 96%
08:00 +21°C° 0 mm 0 mps 690 mmHg 96%
09:00 +23°C° 0.5 mm 0 mps 690 mmHg 90%
10:00 +25°C° 0.5 mm 0 mps 690 mmHg 84%
11:00 +26°C° 0.5 mm 0 mps 690 mmHg 78%
12:00 +27°C° 0.9 mm 0 mps 689 mmHg 73%
13:00 +28°C° 0.9 mm 0 mps 688 mmHg 68%
14:00 +29°C° 0.9 mm 0 mps 688 mmHg 63%
15:00 +27°C° 1.3 mm 0 mps 687 mmHg 73%
16:00 +28°C° 1.3 mm 1 mps 687 mmHg 83%
17:00 +26°C° 1.3 mm 1 mps 687 mmHg 93%
18:00 +23°C° 0.8 mm 0 mps 687 mmHg 93%
19:00 +22°C° 0.8 mm 0 mps 687 mmHg 94%
20:00 +20°C° 0.8 mm 0 mps 687 mmHg 95%
21:00 +20°C° 0 mm 0 mps 688 mmHg 96%
22:00 +20°C° 0 mm 0 mps 688 mmHg 97%
23:00 +19°C° 0 mm 0 mps 689 mmHg 98%

Tomorrow, 14 August, Friday

Time Temperature Precipitation Wind Pressure Humidity
00:00 +19°C° 0.2 mm 0 mps 688 mmHg 98%
01:00 +19°C° 0.2 mm 0 mps 688 mmHg 98%
02:00 +19°C° 0.2 mm 0 mps 687 mmHg 99%
03:00 +19°C° 0 mm 0 mps 687 mmHg 99%
04:00 +19°C° 0 mm 0 mps 688 mmHg 99%
05:00 +19°C° 0 mm 0 mps 688 mmHg 99%
06:00 +20°C° 0.1 mm 0 mps 688 mmHg 98%
07:00 +22°C° 0.1 mm 1 mps 689 mmHg 97%
08:00 +23°C° 0.1 mm 1 mps 689 mmHg 96%
09:00 +24°C° 1 mm 1 mps 689 mmHg 94%
10:00 +25°C° 1 mm 1 mps 689 mmHg 92%
11:00 +27°C° 1 mm 1 mps 690 mmHg 90%
12:00 +27°C° 1.3 mm 1 mps 689 mmHg 86%
13:00 +28°C° 1.3 mm 1 mps 688 mmHg 83%
14:00 +26°C° 1.3 mm 0 mps 687 mmHg 79%
15:00 +26°C° 0.7 mm 0 mps 687 mmHg 80%
16:00 +26°C° 0.7 mm 0 mps 686 mmHg 81%
17:00 +25°C° 0.7 mm 0 mps 686 mmHg 82%
18:00 +24°C° 0.1 mm 0 mps 686 mmHg 86%
19:00 +22°C° 0.1 mm 0 mps 686 mmHg 90%
20:00 +21°C° 0.1 mm 0 mps 686 mmHg 94%
21:00 +20°C° 0.1 mm 0 mps 686 mmHg 95%
22:00 +20°C° 0.1 mm 0 mps 686 mmHg 96%
23:00 +20°C° 0.1 mm 0 mps 687 mmHg 97%

Day after tomorrow, 15 August, Saturday

Time Temperature Precipitation Wind Pressure Humidity
00:00 +20°C° 0.1 mm 0 mps 686 mmHg 97%
01:00 +19°C° 0.1 mm 0 mps 686 mmHg 97%
02:00 +19°C° 0.1 mm 0 mps 686 mmHg 97%
03:00 +19°C° 0 mm 0 mps 686 mmHg 97%
04:00 +19°C° 0 mm 0 mps 686 mmHg 97%
05:00 +19°C° 0 mm 0 mps 686 mmHg 97%
06:00 +20°C° 0 mm 0 mps 686 mmHg 95%
07:00 +21°C° 0 mm 0 mps 687 mmHg 92%
08:00 +21°C° 0 mm 0 mps 688 mmHg 90%
09:00 +23°C° 0 mm 0 mps 688 mmHg 82%
10:00 +25°C° 0 mm 0 mps 689 mmHg 73%
11:00 +27°C° 0 mm 0 mps 689 mmHg 64%
12:00 +27°C° 0.4 mm 0 mps 688 mmHg 65%
13:00 +28°C° 0.4 mm 0 mps 687 mmHg 66%
14:00 +31°C° 0.4 mm 1 mps 687 mmHg 67%
15:00 +29°C° 0.6 mm 1 mps 686 mmHg 71%
16:00 +28°C° 0.6 mm 1 mps 685 mmHg 76%
17:00 +27°C° 0.6 mm 1 mps 685 mmHg 81%
18:00 +25°C° 1.2 mm 1 mps 685 mmHg 86%
19:00 +21°C° 1.2 mm 0 mps 685 mmHg 91%
20:00 +20°C° 1.2 mm 0 mps 686 mmHg 96%
21:00 +19°C° 0.2 mm 0 mps 686 mmHg 96%
22:00 +19°C° 0.2 mm 0 mps 686 mmHg 96%
23:00 +19°C° 0.2 mm 0 mps 687 mmHg 96%

16 August, Sunday

Time Temperature Precipitation Wind Pressure Humidity
00:00 +19°C° 0.1 mm 0 mps 686 mmHg 96%
01:00 +19°C° 0.1 mm 0 mps 686 mmHg 96%
02:00 +19°C° 0.1 mm 0 mps 686 mmHg 96%
03:00 +19°C° 0.1 mm 0 mps 686 mmHg 97%
04:00 +19°C° 0.1 mm 0 mps 686 mmHg 97%
05:00 +19°C° 0.1 mm 0 mps 686 mmHg 98%
06:00 +20°C° 0.1 mm 0 mps 686 mmHg 96%
07:00 +21°C° 0.1 mm 0 mps 687 mmHg 95%
08:00 +21°C° 0.1 mm 0 mps 687 mmHg 94%
09:00 +22°C° 0.5 mm 0 mps 688 mmHg 92%
10:00 +23°C° 0.5 mm 0 mps 688 mmHg 90%
11:00 +24°C° 0.5 mm 0 mps 688 mmHg 89%
12:00 +27°C° 0.4 mm 1 mps 688 mmHg 80%
13:00 +29°C° 0.4 mm 1 mps 687 mmHg 70%
14:00 +30°C° 0.4 mm 1 mps 686 mmHg 61%
15:00 +29°C° 0.3 mm 1 mps 686 mmHg 69%
16:00 +28°C° 0.3 mm 1 mps 686 mmHg 76%
17:00 +26°C° 0.3 mm 0 mps 685 mmHg 84%
18:00 +24°C° 0.4 mm 0 mps 685 mmHg 88%
19:00 +22°C° 0.4 mm 0 mps 686 mmHg 92%
20:00 +21°C° 0.4 mm 0 mps 686 mmHg 96%
21:00 +20°C° 1.2 mm 0 mps 686 mmHg 97%
22:00 +20°C° 1.2 mm 0 mps 687 mmHg 98%
23:00 +20°C° 1.2 mm 0 mps 687 mmHg 98%

17 August, Monday

Time Temperature Precipitation Wind Pressure Humidity
00:00 +20°C° 1.6 mm 0 mps 687 mmHg 99%
01:00 +19°C° 1.6 mm 0 mps 687 mmHg 99%
02:00 +19°C° 1.6 mm 0 mps 686 mmHg 99%
03:00 +19°C° 1.7 mm 0 mps 686 mmHg 99%
04:00 +19°C° 1.7 mm 0 mps 686 mmHg 99%
05:00 +19°C° 1.7 mm 0 mps 686 mmHg 99%
06:00 +19°C° 0.9 mm 0 mps 687 mmHg 99%
07:00 +20°C° 0.9 mm 0 mps 688 mmHg 99%
08:00 +20°C° 0.9 mm 0 mps 688 mmHg 98%
09:00 +22°C° 1.8 mm 1 mps 688 mmHg 98%
10:00 +22°C° 1.8 mm 1 mps 688 mmHg 98%
11:00 +22°C° 1.8 mm 1 mps 688 mmHg 98%
12:00 +22°C° 0.2 mm 1 mps 687 mmHg 97%
13:00 +23°C° 0.2 mm 1 mps 687 mmHg 96%
14:00 +23°C° 0.2 mm 1 mps 686 mmHg 95%
15:00 +23°C° 0 mm 1 mps 686 mmHg 94%
16:00 +21°C° 0 mm 0 mps 686 mmHg 93%
17:00 +21°C° 0 mm 0 mps 686 mmHg 92%
18:00 +21°C° 0 mm 0 mps 686 mmHg 94%
19:00 +20°C° 0 mm 0 mps 686 mmHg 96%
20:00 +20°C° 0 mm 0 mps 687 mmHg 98%
21:00 +19°C° 0 mm 0 mps 687 mmHg 97%
22:00 +19°C° 0 mm 0 mps 687 mmHg 97%
23:00 +19°C° 0 mm 0 mps 688 mmHg 97%

18 August, Tuesday

Time Temperature Precipitation Wind Pressure Humidity
00:00 +19°C° 0 mm 0 mps 688 mmHg 97%
01:00 +19°C° 0 mm 0 mps 687 mmHg 97%
02:00 +19°C° 0 mm 0 mps 687 mmHg 97%
03:00 +19°C° 0 mm 0 mps 687 mmHg 97%
04:00 +19°C° 0 mm 0 mps 687 mmHg 97%
05:00 +19°C° 0 mm 0 mps 687 mmHg 97%
06:00 +20°C° 0 mm 0 mps 688 mmHg 94%
07:00 +22°C° 0 mm 1 mps 688 mmHg 91%
08:00 +23°C° 0 mm 1 mps 689 mmHg 88%
09:00 +24°C° 0.5 mm 1 mps 689 mmHg 86%
10:00 +25°C° 0.5 mm 1 mps 689 mmHg 85%
11:00 +27°C° 0.5 mm 1 mps 689 mmHg 83%
12:00 +27°C° 1.4 mm 1 mps 689 mmHg 84%
13:00 +27°C° 1.4 mm 1 mps 688 mmHg 85%
14:00 +27°C° 1.4 mm 1 mps 687 mmHg 85%
15:00 +26°C° 1 mm 1 mps 687 mmHg 88%
16:00 +24°C° 1 mm 0 mps 686 mmHg 91%
17:00 +23°C° 1 mm 0 mps 686 mmHg 94%
18:00 +22°C° 0.3 mm 0 mps 686 mmHg 95%
19:00 +21°C° 0.3 mm 0 mps 686 mmHg 96%
20:00 +20°C° 0.3 mm 0 mps 687 mmHg 97%
21:00 +20°C° 0 mm 0 mps 687 mmHg 97%
22:00 +22°C° 0 mm 1 mps 687 mmHg 97%
23:00 +21°C° 0 mm 1 mps 687 mmHg 97%
Show more